Change the Weather History Date:

Tuesday, January 22, 2013

  Actual Average Record
Temperature  
Mean Temperature 66 °F 57 °F  
Max Temperature 75 °F 68 °F 91 °F (1969)
Min Temperature 56 °F 46 °F 20 °F (1935)
Degree Days  
Heating Degree Days 0 9  
Month to date heating degree days 213 214  
Since 1 July heating degree days 415 604  
Cooling Degree Days 1 1  
Month to date cooling degree days 7 22  
Year to date cooling degree days 7 22  
Growing Degree Days 14 (Base 50)    
Moisture  
Dew Point 52 °F    
Average Humidity 65    
Maximum Humidity 90    
Minimum Humidity 45    
Precipitation  
Precipitation 0.00 in 0.03 in 0.18 in (1926)
Month to date precipitation 0.44 0.64  
Year to date precipitation 0.44 0.64  
Sea Level Pressure  
Sea Level Pressure 30.21 in    
Wind  
Wind Speed 8 mph (SE)    
Max Wind Speed 14 mph    
Max Gust Speed 17 mph    
Visibility 10 miles    
Events      
T = Trace of Precipitation, MM = Missing Value Source: NWS Daily Summary

Daily Weather History Graph

Daily Weather History Graph

Search for Another Location

Airport or City:

Trip Planner

Search our weather history database for the weather conditions in past years. The results will help you decide how hot, cold, wet, or windy it might be!

Date:

Astronomy

Jan. 22, 2013 Rise Set
Actual Time 7:28 AM CST 6:11 PM CST
Civil Twilight 7:03 AM CST 6:36 PM CST
Nautical Twilight 6:34 AM CST 7:04 PM CST
Astronomical Twilight 6:06 AM CST 7:32 PM CST
Moon 2:39 PM CST 3:47 AM CST
Length of Visible Light 11h 32m
Length of Day
10h 43m
Waxing Gibbous, 83% of the Moon is Illuminated
Jan 22
Waxing Gibbous
Jan 26
Full
Feb 3
Last Quarter
Feb 10
New
Feb 17
First Quarter

Hourly Weather History & Observations

Time (CST) Temp. Dew Point Humidity Pressure Visibility Wind Dir Wind Speed Gust Speed Precip Events Conditions
12:56 AM 61.0 °F 48.9 °F 64% 30.18 in 10.0 mi SSE 8.1 mph - N/A   Overcast
1:56 AM 59.9 °F 50.9 °F 72% 30.17 in 10.0 mi SSE 6.9 mph - N/A   Overcast
2:56 AM 59.9 °F 52.9 °F 78% 30.19 in 10.0 mi SSE 6.9 mph - N/A   Overcast
3:56 AM 59.0 °F 52.9 °F 80% 30.19 in 10.0 mi SE 8.1 mph - N/A   Mostly Cloudy
4:56 AM 57.9 °F 54.0 °F 87% 30.19 in 10.0 mi SE 6.9 mph - N/A   Mostly Cloudy
5:56 AM 56.8 °F 54.0 °F 90% 30.19 in 10.0 mi SE 5.8 mph - N/A   Scattered Clouds
6:56 AM 56.8 °F 54.0 °F 90% 30.22 in 10.0 mi SSE 4.6 mph - N/A   Clear
7:56 AM 56.8 °F 54.0 °F 90% 30.24 in 10.0 mi SE 4.6 mph - N/A   Clear
8:56 AM 59.0 °F 54.9 °F 86% 30.26 in 10.0 mi SE 4.6 mph - N/A   Clear
9:56 AM 63.9 °F 55.9 °F 75% 30.27 in 10.0 mi ESE 10.4 mph - N/A   Mostly Cloudy
10:56 AM 68.0 °F 54.9 °F 63% 30.27 in 10.0 mi SE 12.7 mph - N/A   Scattered Clouds
11:56 AM 70.0 °F 54.9 °F 59% 30.26 in 10.0 mi SSE 8.1 mph - N/A   Partly Cloudy
12:56 PM 70.9 °F 54.9 °F 57% 30.23 in 10.0 mi SSE 10.4 mph - N/A   Partly Cloudy
1:56 PM 72.9 °F 54.9 °F 53% 30.20 in 10.0 mi SE 11.5 mph - N/A   Partly Cloudy
2:56 PM 73.9 °F 54.9 °F 51% 30.19 in 10.0 mi ESE 10.4 mph - N/A   Scattered Clouds
3:56 PM 73.9 °F 54.0 °F 50% 30.18 in 10.0 mi South 6.9 mph - N/A   Mostly Cloudy
4:56 PM 73.9 °F 52.9 °F 48% 30.18 in 10.0 mi South 10.4 mph - N/A   Scattered Clouds
5:56 PM 72.0 °F 50.9 °F 47% 30.18 in 10.0 mi SSE 10.4 mph - N/A   Mostly Cloudy
6:56 PM 70.9 °F 48.9 °F 46% 30.19 in 10.0 mi SE 8.1 mph - N/A   Overcast
7:56 PM 68.0 °F 48.9 °F 50% 30.20 in 10.0 mi SE 5.8 mph - N/A   Scattered Clouds
8:56 PM 66.9 °F 47.8 °F 50% 30.22 in 10.0 mi SE 9.2 mph - N/A   Overcast
9:56 PM 64.9 °F 46.9 °F 52% 30.24 in 10.0 mi SE 8.1 mph - N/A   Mostly Cloudy
10:56 PM 63.9 °F 47.8 °F 56% 30.25 in 10.0 mi SE 8.1 mph - N/A   Mostly Cloudy
11:56 PM 63.0 °F 50.0 °F 63% 30.25 in 10.0 mi SE 4.6 mph - N/A   Mostly Cloudy